LGL4165 LFPG-EDDM

Flight info

Callsign LGL4165
Flight time 1h 26m
Altitude 25000
Route BUBLI DCT LUVAL DCT BEGAR DCT TRA DCT NUNRI T103 BETOS BETOS1B
Aircraft DH8D/M-SDFGIRY/H

Departure

Time 2026-05-06 17:17
Airport Charles de Gaulle International Airport (LFPG)

Arrival

Time 2026-05-06 18:43
Airport Munich Airport (EDDM)
Time Latitude Longitude Altitude Speed Heading
2026-05-06 17:05 49.00413 2.59966 400 ft 0 kts 86°
2026-05-06 17:10 49.00412 2.59944 400 ft 3 kts 86°
2026-05-06 17:11 49.00411 2.59911 400 ft 3 kts 110°
2026-05-06 17:11 49.00421 2.59895 400 ft 0 kts 158°
2026-05-06 17:13 49.00419 2.59896 400 ft 2 kts 158°
2026-05-06 17:13 49.00383 2.59907 400 ft 6 kts 173°
2026-05-06 17:14 49.00342 2.59900 400 ft 7 kts 220°
2026-05-06 17:14 49.00325 2.59810 400 ft 11 kts 262°
2026-05-06 17:14 49.00317 2.59684 400 ft 13 kts 265°
2026-05-06 17:14 49.00270 2.59604 400 ft 11 kts 176°
2026-05-06 17:15 49.00188 2.59612 400 ft 12 kts 175°
2026-05-06 17:15 49.00128 2.59618 400 ft 14 kts 176°
2026-05-06 17:15 49.00026 2.59630 400 ft 15 kts 175°
2026-05-06 17:15 48.99889 2.59646 400 ft 14 kts 174°
2026-05-06 17:16 48.99810 2.59633 400 ft 9 kts 238°
2026-05-06 17:16 48.99802 2.59581 400 ft 6 kts 264°
2026-05-06 17:16 48.99796 2.59482 400 ft 31 kts 264°
2026-05-06 17:16 48.99757 2.58752 400 ft 106 kts 266°
2026-05-06 17:17 48.99670 2.57388 667 ft 131 kts 267°
2026-05-06 17:17 48.99587 2.55928 1356 ft 132 kts 270°
2026-05-06 17:17 48.99523 2.54386 1863 ft 152 kts 270°
2026-05-06 17:17 48.99291 2.52672 2381 ft 175 kts 245°
2026-05-06 17:18 48.98360 2.51342 2979 ft 192 kts 207°
2026-05-06 17:18 48.97008 2.51082 3658 ft 198 kts 168°
2026-05-06 17:18 48.95795 2.52095 4413 ft 197 kts 130°
2026-05-06 17:18 48.95164 2.53925 5171 ft 195 kts 102°
2026-05-06 17:19 48.94888 2.55988 5896 ft 202 kts 94°
2026-05-06 17:19 48.94667 2.58172 6526 ft 213 kts 94°
2026-05-06 17:19 48.94432 2.60470 7160 ft 223 kts 95°
2026-05-06 17:19 48.94194 2.62842 7843 ft 230 kts 96°
2026-05-06 17:20 48.93950 2.65299 8439 ft 237 kts 97°
2026-05-06 17:20 48.93692 2.67811 9161 ft 243 kts 96°
2026-05-06 17:20 48.93306 2.70325 9824 ft 245 kts 106°
2026-05-06 17:20 48.92742 2.72793 10477 ft 249 kts 110°
2026-05-06 17:21 48.92142 2.75263 10989 ft 253 kts 109°
2026-05-06 17:21 48.91526 2.77800 11536 ft 257 kts 109°
2026-05-06 17:21 48.90904 2.80373 12038 ft 260 kts 109°
2026-05-06 17:21 48.90266 2.82970 12593 ft 261 kts 110°
2026-05-06 17:22 48.89625 2.85567 13146 ft 261 kts 110°
2026-05-06 17:22 48.88982 2.88166 13614 ft 263 kts 110°
2026-05-06 17:22 48.88329 2.90771 14082 ft 264 kts 110°
2026-05-06 17:22 48.87672 2.93382 14519 ft 266 kts 110°
2026-05-06 17:23 48.87010 2.96017 14940 ft 268 kts 110°
2026-05-06 17:23 48.86344 2.98666 15369 ft 268 kts 110°
2026-05-06 17:23 48.85675 3.01324 15764 ft 269 kts 111°
2026-05-06 17:23 48.85001 3.03988 16143 ft 269 kts 111°
2026-05-06 17:24 48.84334 3.06656 16556 ft 268 kts 110°
2026-05-06 17:24 48.83677 3.09258 17006 ft 266 kts 110°
2026-05-06 17:24 48.83007 3.11902 17488 ft 262 kts 110°
2026-05-06 17:24 48.82362 3.14451 17933 ft 260 kts 110°
2026-05-06 17:25 48.81713 3.17013 18364 ft 258 kts 110°
2026-05-06 17:25 48.81067 3.19560 18777 ft 257 kts 110°
2026-05-06 17:25 48.80422 3.22106 19176 ft 256 kts 110°
2026-05-06 17:25 48.79779 3.24642 19566 ft 255 kts 110°
2026-05-06 17:26 48.79140 3.27168 19970 ft 255 kts 110°
2026-05-06 17:26 48.78501 3.29682 20372 ft 253 kts 110°
2026-05-06 17:26 48.77866 3.32176 20757 ft 252 kts 110°
2026-05-06 17:26 48.77231 3.34668 21129 ft 251 kts 110°
2026-05-06 17:27 48.76602 3.37127 21487 ft 251 kts 110°
2026-05-06 17:27 48.75967 3.39610 21838 ft 251 kts 110°
2026-05-06 17:27 48.75333 3.42088 22180 ft 250 kts 110°
2026-05-06 17:27 48.74700 3.44560 22513 ft 250 kts 110°
2026-05-06 17:28 48.74067 3.47034 22837 ft 250 kts 110°
2026-05-06 17:28 48.73441 3.49476 23151 ft 250 kts 110°
2026-05-06 17:28 48.72806 3.51950 23462 ft 249 kts 110°
2026-05-06 17:28 48.72169 3.54416 23765 ft 250 kts 110°
2026-05-06 17:29 48.71532 3.56887 24062 ft 249 kts 110°
2026-05-06 17:29 48.70896 3.59359 24353 ft 249 kts 110°
2026-05-06 17:29 48.70265 3.61825 24638 ft 249 kts 110°
2026-05-06 17:29 48.69632 3.64313 24802 ft 255 kts 110°
2026-05-06 17:30 48.68978 3.66872 24869 ft 264 kts 110°
2026-05-06 17:30 48.68299 3.69502 24900 ft 272 kts 111°
2026-05-06 17:30 48.67598 3.72217 24911 ft 281 kts 111°
2026-05-06 17:30 48.66877 3.75013 24915 ft 289 kts 111°
2026-05-06 17:31 48.66146 3.77840 24918 ft 296 kts 111°
2026-05-06 17:31 48.65385 3.80775 24917 ft 303 kts 111°
2026-05-06 17:31 48.64603 3.83775 24916 ft 309 kts 111°
2026-05-06 17:31 48.63808 3.86817 24916 ft 314 kts 111°
2026-05-06 17:32 48.62999 3.89918 24915 ft 319 kts 111°
2026-05-06 17:32 48.62179 3.93062 24915 ft 323 kts 111°
2026-05-06 17:32 48.61351 3.96235 24914 ft 327 kts 111°
2026-05-06 17:32 48.60513 3.99444 24913 ft 330 kts 111°
2026-05-06 17:33 48.59674 4.02644 24913 ft 333 kts 111°
2026-05-06 17:33 48.58818 4.05916 24912 ft 336 kts 111°
2026-05-06 17:33 48.57961 4.09205 24912 ft 338 kts 111°
2026-05-06 17:33 48.57093 4.12519 24912 ft 340 kts 111°
2026-05-06 17:34 48.56302 4.15886 24907 ft 340 kts 107°
2026-05-06 17:34 48.55649 4.19311 24911 ft 339 kts 105°
2026-05-06 17:34 48.55028 4.22741 24909 ft 339 kts 105°
2026-05-06 17:34 48.54412 4.26126 24908 ft 338 kts 105°
2026-05-06 17:35 48.53786 4.29545 24907 ft 338 kts 105°
2026-05-06 17:35 48.53159 4.32958 24907 ft 337 kts 105°
2026-05-06 17:35 48.52532 4.36367 24906 ft 337 kts 105°
2026-05-06 17:36 48.51277 4.43173 24904 ft 336 kts 105°
2026-05-06 17:36 48.50652 4.46566 24903 ft 336 kts 105°
2026-05-06 17:36 48.50022 4.49974 24901 ft 336 kts 105°
2026-05-06 17:36 48.49400 4.53322 24900 ft 336 kts 105°
2026-05-06 17:37 48.48771 4.56709 24899 ft 336 kts 105°
2026-05-06 17:37 48.48142 4.60097 24897 ft 336 kts 105°
2026-05-06 17:37 48.47513 4.63485 24896 ft 336 kts 105°
2026-05-06 17:37 48.46883 4.66864 24894 ft 335 kts 105°
2026-05-06 17:38 48.46249 4.70251 24893 ft 335 kts 106°
2026-05-06 17:38 48.45615 4.73632 24892 ft 335 kts 106°
2026-05-06 17:38 48.44988 4.76975 24891 ft 335 kts 106°
2026-05-06 17:38 48.44355 4.80360 24890 ft 335 kts 106°
2026-05-06 17:39 48.43720 4.83743 24890 ft 335 kts 106°
2026-05-06 17:39 48.43083 4.87120 24889 ft 335 kts 106°
2026-05-06 17:39 48.42443 4.90508 24889 ft 335 kts 106°
2026-05-06 17:39 48.41813 4.93838 24889 ft 335 kts 106°
2026-05-06 17:40 48.41175 4.97212 24888 ft 335 kts 106°
2026-05-06 17:40 48.40535 5.00583 24888 ft 335 kts 107°
2026-05-06 17:40 48.39894 5.03952 24889 ft 335 kts 107°
2026-05-06 17:40 48.39252 5.07324 24889 ft 335 kts 107°
2026-05-06 17:41 48.38609 5.10694 24889 ft 335 kts 107°
2026-05-06 17:41 48.37965 5.14061 24889 ft 335 kts 107°
2026-05-06 17:41 48.37322 5.17423 24888 ft 335 kts 107°
2026-05-06 17:41 48.36675 5.20787 24888 ft 335 kts 107°
2026-05-06 17:42 48.36029 5.24150 24888 ft 335 kts 107°
2026-05-06 17:42 48.35383 5.27505 24887 ft 335 kts 107°
2026-05-06 17:42 48.34732 5.30863 24887 ft 334 kts 107°
2026-05-06 17:42 48.34084 5.34218 24887 ft 334 kts 107°
2026-05-06 17:43 48.33444 5.37520 24886 ft 334 kts 107°
2026-05-06 17:43 48.32791 5.40874 24885 ft 334 kts 108°
2026-05-06 17:43 48.32141 5.44217 24887 ft 334 kts 108°
2026-05-06 17:43 48.31490 5.47562 24892 ft 333 kts 108°
2026-05-06 17:44 48.30835 5.50903 24888 ft 333 kts 108°
2026-05-06 17:44 48.30182 5.54234 24884 ft 333 kts 108°
2026-05-06 17:44 48.29528 5.57575 24882 ft 333 kts 108°
2026-05-06 17:44 48.28873 5.60904 24880 ft 333 kts 108°
2026-05-06 17:45 48.28215 5.64239 24879 ft 333 kts 108°
2026-05-06 17:45 48.27556 5.67569 24875 ft 333 kts 108°
2026-05-06 17:45 48.26899 5.70900 24872 ft 333 kts 108°
2026-05-06 17:45 48.26241 5.74223 24870 ft 333 kts 108°
2026-05-06 17:46 48.25581 5.77541 24868 ft 332 kts 108°
2026-05-06 17:46 48.24919 5.80863 24867 ft 332 kts 108°
2026-05-06 17:46 48.24256 5.84181 24865 ft 332 kts 108°
2026-05-06 17:46 48.23602 5.87454 24864 ft 332 kts 108°
2026-05-06 17:47 48.22940 5.90768 24863 ft 332 kts 108°
2026-05-06 17:47 48.22278 5.94085 24862 ft 331 kts 108°
2026-05-06 17:47 48.21615 5.97392 24861 ft 331 kts 108°
2026-05-06 17:47 48.20950 6.00700 24860 ft 331 kts 108°
2026-05-06 17:48 48.20285 6.03999 24859 ft 331 kts 108°
2026-05-06 17:48 48.19618 6.07303 24859 ft 331 kts 108°
2026-05-06 17:48 48.18960 6.10559 24859 ft 331 kts 108°
2026-05-06 17:48 48.18285 6.13892 24859 ft 331 kts 108°
2026-05-06 17:49 48.17624 6.17149 24859 ft 330 kts 108°
2026-05-06 17:49 48.16953 6.20450 24860 ft 330 kts 108°
2026-05-06 17:49 48.16283 6.23744 24861 ft 330 kts 108°
2026-05-06 17:49 48.15613 6.27035 24862 ft 330 kts 108°
2026-05-06 17:50 48.14949 6.30285 24863 ft 330 kts 109°
2026-05-06 17:50 48.14278 6.33569 24863 ft 330 kts 109°
2026-05-06 17:50 48.13605 6.36858 24865 ft 330 kts 109°
2026-05-06 17:50 48.12929 6.40151 24866 ft 330 kts 109°
2026-05-06 17:51 48.12256 6.43429 24867 ft 330 kts 109°
2026-05-06 17:51 48.11580 6.46717 24868 ft 330 kts 109°
2026-05-06 17:51 48.10902 6.50008 24869 ft 330 kts 109°
2026-05-06 17:51 48.10233 6.53248 24870 ft 330 kts 109°
2026-05-06 17:52 48.09554 6.56535 24870 ft 330 kts 109°
2026-05-06 17:52 48.08874 6.59823 24870 ft 330 kts 109°
2026-05-06 17:52 48.08197 6.63104 24870 ft 330 kts 109°
2026-05-06 17:52 48.07517 6.66385 24871 ft 330 kts 109°
2026-05-06 17:53 48.06833 6.69666 24871 ft 331 kts 109°
2026-05-06 17:53 48.06144 6.72948 24871 ft 331 kts 109°
2026-05-06 17:53 48.05458 6.76224 24871 ft 331 kts 109°
2026-05-06 17:53 48.04780 6.79463 24870 ft 331 kts 109°
2026-05-06 17:54 48.04093 6.82742 24878 ft 331 kts 110°
2026-05-06 17:54 48.03406 6.86020 24887 ft 331 kts 109°
2026-05-06 17:54 48.02717 6.89306 24884 ft 332 kts 108°
2026-05-06 17:54 48.02023 6.92593 24855 ft 332 kts 110°
2026-05-06 17:55 48.01331 6.95880 24887 ft 330 kts 108°
2026-05-06 17:55 48.00644 6.99150 24863 ft 330 kts 107°
2026-05-06 17:55 47.99951 7.02408 24848 ft 328 kts 109°
2026-05-06 17:55 47.99279 7.05610 24857 ft 326 kts 109°
2026-05-06 17:56 47.98613 7.08828 24877 ft 323 kts 108°
2026-05-06 17:56 47.97943 7.12021 24874 ft 321 kts 110°
2026-05-06 17:56 47.97276 7.15186 24860 ft 318 kts 109°
2026-05-06 17:56 47.96607 7.18334 24878 ft 318 kts 111°
2026-05-06 17:57 47.95932 7.21476 24857 ft 318 kts 110°
2026-05-06 17:57 47.95257 7.24611 24868 ft 316 kts 111°
2026-05-06 17:57 47.94588 7.27724 24862 ft 316 kts 110°
2026-05-06 17:57 47.93914 7.30851 24882 ft 316 kts 110°
2026-05-06 17:58 47.93239 7.33977 24874 ft 317 kts 110°
2026-05-06 17:58 47.92563 7.37111 24871 ft 318 kts 110°
2026-05-06 17:58 47.92116 7.39183 24870 ft 318 kts 110°
2026-05-06 17:58 47.91432 7.42336 24870 ft 319 kts 110°
2026-05-06 17:59 47.90521 7.46512 24872 ft 320 kts 110°
2026-05-06 17:59 47.89834 7.49665 24874 ft 320 kts 110°
2026-05-06 17:59 47.89369 7.51800 24875 ft 321 kts 110°
2026-05-06 17:59 47.88683 7.54925 24896 ft 322 kts 110°
2026-05-06 18:00 47.87988 7.58107 24863 ft 322 kts 111°
2026-05-06 18:00 47.87299 7.61280 24888 ft 322 kts 110°
2026-05-06 18:00 47.86607 7.64444 24891 ft 321 kts 111°
2026-05-06 18:00 47.85913 7.67607 24888 ft 321 kts 111°
2026-05-06 18:01 47.85218 7.70766 24875 ft 320 kts 111°
2026-05-06 18:01 47.84530 7.73909 24873 ft 319 kts 110°
2026-05-06 18:01 47.83845 7.77042 24884 ft 318 kts 110°
2026-05-06 18:01 47.83156 7.80168 24886 ft 317 kts 110°
2026-05-06 18:02 47.82476 7.83247 24888 ft 317 kts 110°
2026-05-06 18:02 47.81787 7.86360 24891 ft 317 kts 110°
2026-05-06 18:02 47.81101 7.89463 24894 ft 316 kts 110°
2026-05-06 18:02 47.80410 7.92579 24895 ft 316 kts 110°
2026-05-06 18:03 47.79720 7.95687 24895 ft 316 kts 110°
2026-05-06 18:03 47.79030 7.98796 24896 ft 316 kts 110°
2026-05-06 18:03 47.78339 8.01903 24908 ft 317 kts 110°
2026-05-06 18:03 47.77646 8.05020 24900 ft 318 kts 110°
2026-05-06 18:04 47.76952 8.08143 24898 ft 319 kts 110°
2026-05-06 18:04 47.76254 8.11270 24898 ft 319 kts 110°
2026-05-06 18:04 47.75554 8.14403 24898 ft 320 kts 110°
2026-05-06 18:04 47.74851 8.17548 24898 ft 321 kts 111°
2026-05-06 18:05 47.74156 8.20652 24899 ft 321 kts 111°
2026-05-06 18:05 47.73450 8.23804 24899 ft 322 kts 111°
2026-05-06 18:05 47.72741 8.26963 24900 ft 323 kts 111°
2026-05-06 18:05 47.72026 8.30132 24901 ft 323 kts 111°
2026-05-06 18:06 47.71311 8.33298 24901 ft 324 kts 111°
2026-05-06 18:06 47.70593 8.36476 24902 ft 324 kts 111°
2026-05-06 18:06 47.69878 8.39652 24903 ft 325 kts 111°
2026-05-06 18:06 47.69177 8.42795 24904 ft 326 kts 110°
2026-05-06 18:07 47.68660 8.46085 24905 ft 329 kts 102°
2026-05-06 18:07 47.68395 8.49479 24908 ft 331 kts 98°
2026-05-06 18:07 47.68191 8.52900 24907 ft 334 kts 99°
2026-05-06 18:07 47.67964 8.56340 24908 ft 336 kts 99°
2026-05-06 18:08 47.67704 8.59794 24908 ft 338 kts 100°
2026-05-06 18:08 47.67416 8.63265 24908 ft 340 kts 101°
2026-05-06 18:08 47.67124 8.66710 24908 ft 342 kts 101°
2026-05-06 18:08 47.66828 8.70214 24906 ft 344 kts 101°
2026-05-06 18:09 47.66533 8.73736 24903 ft 345 kts 101°
2026-05-06 18:09 47.66241 8.77264 24903 ft 345 kts 100°
2026-05-06 18:09 47.65951 8.80804 24901 ft 345 kts 101°
2026-05-06 18:09 47.65660 8.84341 24900 ft 346 kts 101°
2026-05-06 18:10 47.65374 8.87879 24898 ft 346 kts 100°
2026-05-06 18:10 47.65237 8.91453 24898 ft 349 kts 94°
2026-05-06 18:10 47.65301 8.95060 24897 ft 351 kts 91°
2026-05-06 18:10 47.65404 8.98672 24896 ft 351 kts 91°
2026-05-06 18:11 47.65501 9.02290 24894 ft 351 kts 92°
2026-05-06 18:11 47.65588 9.05916 24893 ft 352 kts 92°
2026-05-06 18:11 47.65669 9.09500 24892 ft 352 kts 92°
2026-05-06 18:11 47.65750 9.13126 24891 ft 352 kts 92°
2026-05-06 18:12 47.65830 9.16765 24889 ft 353 kts 92°
2026-05-06 18:12 47.65908 9.20404 24889 ft 353 kts 92°
2026-05-06 18:12 47.65986 9.24046 24887 ft 353 kts 92°
2026-05-06 18:12 47.66062 9.27684 24886 ft 354 kts 92°
2026-05-06 18:13 47.66136 9.31326 24886 ft 354 kts 92°
2026-05-06 18:13 47.66206 9.34985 24885 ft 354 kts 92°
2026-05-06 18:13 47.66278 9.38631 24885 ft 354 kts 92°
2026-05-06 18:13 47.66352 9.42284 24885 ft 355 kts 92°
2026-05-06 18:14 47.66428 9.45939 24884 ft 355 kts 92°
2026-05-06 18:14 47.66497 9.49596 24884 ft 355 kts 92°
2026-05-06 18:14 47.66562 9.53204 24884 ft 355 kts 92°
2026-05-06 18:14 47.66629 9.56872 24884 ft 355 kts 92°
2026-05-06 18:15 47.66695 9.60530 24884 ft 355 kts 92°
2026-05-06 18:15 47.66757 9.64202 24884 ft 355 kts 92°
2026-05-06 18:15 47.66821 9.67869 24884 ft 355 kts 92°
2026-05-06 18:15 47.66885 9.71536 24883 ft 355 kts 92°
2026-05-06 18:16 47.66946 9.75199 24883 ft 355 kts 92°
2026-05-06 18:16 47.67003 9.78861 24881 ft 355 kts 92°
2026-05-06 18:16 47.67063 9.82531 24880 ft 355 kts 92°
2026-05-06 18:16 47.67123 9.86193 24878 ft 355 kts 92°
2026-05-06 18:17 47.67181 9.89814 24877 ft 355 kts 92°
2026-05-06 18:17 47.67239 9.93476 24875 ft 355 kts 92°
2026-05-06 18:17 47.67294 9.97134 24873 ft 355 kts 92°
2026-05-06 18:17 47.67345 10.00796 24871 ft 355 kts 92°
2026-05-06 18:18 47.67399 10.04451 24869 ft 355 kts 92°
2026-05-06 18:18 47.67455 10.08114 24868 ft 355 kts 92°
2026-05-06 18:18 47.67508 10.11772 24868 ft 355 kts 92°
2026-05-06 18:18 47.67559 10.15423 24866 ft 355 kts 92°
2026-05-06 18:19 47.67607 10.19028 24866 ft 354 kts 92°
2026-05-06 18:19 47.67657 10.22681 24865 ft 354 kts 92°
2026-05-06 18:19 47.67708 10.26331 24865 ft 354 kts 92°
2026-05-06 18:19 47.67756 10.29985 24864 ft 354 kts 92°
2026-05-06 18:20 47.67802 10.33630 24863 ft 354 kts 92°
2026-05-06 18:20 47.67848 10.37289 24863 ft 354 kts 92°
2026-05-06 18:20 47.67909 10.40940 24866 ft 355 kts 93°
2026-05-06 18:20 47.67998 10.44599 24871 ft 356 kts 93°
2026-05-06 18:21 47.68064 10.48272 24872 ft 356 kts 94°
2026-05-06 18:21 47.68104 10.51932 24531 ft 362 kts 94°
2026-05-06 18:21 47.68135 10.55669 24156 ft 363 kts 95°
2026-05-06 18:21 47.68158 10.59468 23776 ft 364 kts 95°
2026-05-06 18:22 47.68179 10.63180 23406 ft 365 kts 94°
2026-05-06 18:22 47.68198 10.66947 23031 ft 365 kts 94°
2026-05-06 18:22 47.68331 10.70741 22648 ft 370 kts 84°
2026-05-06 18:22 47.69201 10.74367 22276 ft 378 kts 65°
2026-05-06 18:23 47.70606 10.77620 21908 ft 380 kts 57°
2026-05-06 18:23 47.72143 10.80804 21533 ft 380 kts 57°
2026-05-06 18:23 47.73682 10.83990 21158 ft 379 kts 57°
2026-05-06 18:23 47.75208 10.87177 20783 ft 379 kts 57°
2026-05-06 18:24 47.76728 10.90360 20407 ft 378 kts 57°
2026-05-06 18:24 47.78244 10.93544 20031 ft 376 kts 57°
2026-05-06 18:24 47.79753 10.96718 19655 ft 375 kts 57°
2026-05-06 18:24 47.81255 10.99880 19279 ft 373 kts 57°
2026-05-06 18:25 47.82748 11.03029 18904 ft 372 kts 57°
2026-05-06 18:25 47.84216 11.06132 18533 ft 371 kts 57°
2026-05-06 18:25 47.85708 11.09245 18157 ft 370 kts 55°
2026-05-06 18:25 47.87427 11.12096 17781 ft 371 kts 45°
2026-05-06 18:26 47.89405 11.14551 17407 ft 370 kts 39°
2026-05-06 18:26 47.91454 11.16861 17032 ft 369 kts 38°
2026-05-06 18:26 47.93503 11.19164 16657 ft 368 kts 38°
2026-05-06 18:26 47.95521 11.21482 16391 ft 364 kts 39°
2026-05-06 18:27 47.97491 11.23798 16141 ft 360 kts 39°
2026-05-06 18:27 47.99428 11.26118 15983 ft 353 kts 39°
2026-05-06 18:27 48.01315 11.28391 15911 ft 343 kts 40°
2026-05-06 18:27 48.03125 11.30562 15870 ft 324 kts 39°
2026-05-06 18:28 48.04831 11.32606 15858 ft 305 kts 39°
2026-05-06 18:28 48.06474 11.34575 15865 ft 303 kts 40°
2026-05-06 18:28 48.08121 11.36556 15860 ft 305 kts 39°
2026-05-06 18:28 48.09758 11.38525 15857 ft 305 kts 39°
2026-05-06 18:29 48.11413 11.40518 15855 ft 306 kts 39°
2026-05-06 18:29 48.13074 11.42515 15854 ft 307 kts 39°
2026-05-06 18:29 48.14743 11.44527 15748 ft 310 kts 40°
2026-05-06 18:29 48.16395 11.46517 15347 ft 302 kts 39°
2026-05-06 18:30 48.18016 11.48470 14969 ft 297 kts 40°
2026-05-06 18:30 48.19614 11.50397 14533 ft 297 kts 40°
2026-05-06 18:30 48.21229 11.52349 14084 ft 300 kts 40°
2026-05-06 18:30 48.22727 11.54526 13629 ft 301 kts 54°
2026-05-06 18:31 48.23695 11.57218 13180 ft 288 kts 74°
2026-05-06 18:31 48.24167 11.60048 12736 ft 283 kts 84°
2026-05-06 18:31 48.24443 11.62948 12286 ft 279 kts 87°
2026-05-06 18:31 48.24672 11.65812 11833 ft 274 kts 88°
2026-05-06 18:32 48.24880 11.68640 11382 ft 274 kts 88°
2026-05-06 18:32 48.25071 11.71482 10931 ft 275 kts 88°
2026-05-06 18:32 48.25257 11.74348 10480 ft 277 kts 87°
2026-05-06 18:32 48.25445 11.77187 10036 ft 278 kts 86°
2026-05-06 18:33 48.25643 11.80080 9583 ft 280 kts 84°
2026-05-06 18:33 48.25848 11.82987 9135 ft 282 kts 83°
2026-05-06 18:33 48.26060 11.85916 8685 ft 284 kts 83°
2026-05-06 18:33 48.26288 11.88865 8235 ft 285 kts 82°
2026-05-06 18:34 48.26537 11.91809 7788 ft 284 kts 81°
2026-05-06 18:34 48.26788 11.94736 7337 ft 282 kts 80°
2026-05-06 18:34 48.27035 11.97656 6883 ft 281 kts 81°
2026-05-06 18:34 48.27272 12.00566 6432 ft 281 kts 81°
2026-05-06 18:35 48.27496 12.03453 6036 ft 278 kts 82°
2026-05-06 18:35 48.27713 12.06297 5699 ft 277 kts 82°
2026-05-06 18:35 48.27935 12.09164 5457 ft 276 kts 83°
2026-05-06 18:35 48.28156 12.12005 5204 ft 272 kts 81°
2026-05-06 18:36 48.28393 12.14780 5057 ft 261 kts 74°
2026-05-06 18:36 48.29160 12.17135 5012 ft 241 kts 44°
2026-05-06 18:36 48.30452 12.18503 4998 ft 213 kts 11°
2026-05-06 18:36 48.31861 12.18896 4998 ft 196 kts 352°
2026-05-06 18:37 48.33104 12.18279 5016 ft 186 kts 315°
2026-05-06 18:37 48.33698 12.17305 5042 ft 194 kts 301°
2026-05-06 18:37 48.34610 12.14834 5013 ft 213 kts 294°
2026-05-06 18:37 48.35250 12.12781 4995 ft 217 kts 289°
2026-05-06 18:38 48.35632 12.10618 4983 ft 211 kts 278°
2026-05-06 18:38 48.35824 12.08450 4967 ft 208 kts 276°
2026-05-06 18:38 48.35940 12.06268 4729 ft 208 kts 274°
2026-05-06 18:38 48.35982 12.04180 4503 ft 197 kts 270°
2026-05-06 18:39 48.35972 12.02186 4269 ft 185 kts 269°
2026-05-06 18:39 48.35923 12.00312 4032 ft 173 kts 268°
2026-05-06 18:39 48.35845 11.98520 3821 ft 173 kts 266°
2026-05-06 18:40 48.35620 11.94840 3359 ft 179 kts 264°
2026-05-06 18:40 48.35531 11.93606 3201 ft 179 kts 264°
2026-05-06 18:40 48.35391 11.91749 2963 ft 178 kts 263°
2026-05-06 18:40 48.35202 11.89362 2652 ft 163 kts 263°
2026-05-06 18:41 48.35069 11.87762 2473 ft 145 kts 263°
2026-05-06 18:41 48.34948 11.86356 2264 ft 123 kts 263°
2026-05-06 18:41 48.34882 11.85568 2165 ft 107 kts 263°
2026-05-06 18:41 48.34789 11.84429 2035 ft 109 kts 264°
2026-05-06 18:42 48.34689 11.83264 1883 ft 115 kts 264°
2026-05-06 18:42 48.34594 11.82054 1741 ft 116 kts 264°
2026-05-06 18:42 48.34494 11.80829 1590 ft 118 kts 263°
2026-05-06 18:42 48.34412 11.79605 1499 ft 115 kts 264°
2026-05-06 18:43 48.34344 11.78699 1495 ft 50 kts 263°
2026-05-06 18:43 48.34309 11.78223 1495 ft 30 kts 264°
2026-05-06 18:43 48.34322 11.77978 1495 ft 21 kts 284°
2026-05-06 18:43 48.34374 11.77786 1495 ft 18 kts 293°
2026-05-06 18:44 48.34418 11.77632 1495 ft 14 kts 293°
2026-05-06 18:44 48.34458 11.77499 1495 ft 13 kts 304°
2026-05-06 18:44 48.34538 11.77436 1495 ft 14 kts 354°
2026-05-06 18:44 48.34629 11.77467 1495 ft 14 kts 83°
2026-05-06 18:45 48.34638 11.77587 1495 ft 13 kts 82°
2026-05-06 18:45 48.34649 11.77730 1495 ft 15 kts 83°
2026-05-06 18:45 48.34662 11.77893 1495 ft 17 kts 83°
2026-05-06 18:45 48.34675 11.78075 1495 ft 18 kts 83°
2026-05-06 18:46 48.34691 11.78275 1495 ft 20 kts 84°
2026-05-06 18:46 48.34708 11.78490 1495 ft 21 kts 83°
2026-05-06 18:46 48.34726 11.78717 1495 ft 23 kts 84°
2026-05-06 18:46 48.34744 11.78952 1495 ft 21 kts 83°
2026-05-06 18:47 48.34759 11.79152 1495 ft 17 kts 83°
2026-05-06 18:47 48.34772 11.79310 1495 ft 13 kts 83°
2026-05-06 18:47 48.34780 11.79426 1495 ft 9 kts 83°
2026-05-06 18:47 48.34788 11.79511 1495 ft 7 kts 74°
2026-05-06 18:48 48.34827 11.79559 1495 ft 9 kts 15°
2026-05-06 18:48 48.34897 11.79556 1495 ft 11 kts 353°
2026-05-06 18:48 48.34981 11.79548 1495 ft 12 kts 354°
2026-05-06 18:48 48.35067 11.79541 1495 ft 12 kts 24°
2026-05-06 18:49 48.35097 11.79650 1495 ft 12 kts 83°
2026-05-06 18:49 48.35106 11.79768 1495 ft 11 kts 83°
2026-05-06 18:49 48.35114 11.79871 1495 ft 9 kts 83°
2026-05-06 18:49 48.35120 11.79948 1495 ft 6 kts 84°
2026-05-06 18:50 48.35124 11.80003 1495 ft 6 kts 83°
2026-05-06 18:50 48.35130 11.80072 1495 ft 7 kts 82°
2026-05-06 18:50 48.35129 11.80154 1495 ft 8 kts 113°
2026-05-06 18:50 48.35116 11.80228 1495 ft 6 kts 98°
2026-05-06 18:51 48.35092 11.80254 1495 ft 4 kts 166°
2026-05-06 18:51 48.35062 11.80260 1495 ft 4 kts 173°
2026-05-06 18:51 48.35038 11.80264 1495 ft 0 kts 174°